MIDDLE PEAK RAWS NEAR KENTFIELD 2SW HADS current weather conditions

sailwx.info

Wind from 162 at 14 knots gusting 22

Air temperature 7.8° C
Dewpoint 7.6° C

Last reported at 2017-May-25 16:36 UTC.
Time now 2017-May-25 18:07 UTC

Location: N 37°56' W 122°35'.
View on Google Maps.

See reports from other nearby stations

  
Tides and Currents Weather Stations Pressure Air Temp Water Temp Dewpoint Dewpoint Depression Visibility Wind Speed Wind Dir Waves Ship Positions
date/time (UTC)wind fromknots sea level pressurealtimeterstation pressurevisibilityair tempwater tempwave heightnotes
2017-May-25 16:36 162 14 gusting 22 7.8
2017-May-25 15:36 163 14 gusting 22 7.2
2017-May-25 14:36 161 13 gusting 20 7.2
2017-May-25 13:36 168 13 gusting 22 6.7
2017-May-25 12:36 172 14 gusting 23 6.7
2017-May-25 11:36 176 13 gusting 22 6.7
2017-May-25 10:36 178 13 gusting 23 6.7
2017-May-25 09:36 178 13 gusting 21 6.7
2017-May-25 08:36 178 11 gusting 22 6.7
2017-May-25 07:36 186 13 gusting 26 7.2
2017-May-25 06:36 176 14 gusting 25 7.2
2017-May-25 05:36 187 13 gusting 23 7.2
2017-May-25 04:36 189 14 gusting 22 7.2
2017-May-25 03:36 203 13 gusting 26 7.2
2017-May-25 02:36 193 12 gusting 22 8.3
2017-May-25 01:36 197 13 gusting 21 11.1
2017-May-25 00:36 180 8 gusting 16 11.1
2017-May-24 23:36 262 6 gusting 14 19.4
2017-May-24 22:36 263 6 gusting 9 22.8
2017-May-24 21:36 326 3 gusting 7 23.3
2017-May-24 20:36 316 6 gusting 9 25.6
2017-May-24 19:36 303 5 gusting 10 22.2
2017-May-24 18:36 286 6 gusting 10 21.7
2017-May-24 17:36 304 5 gusting 9 21.7
2017-May-24 16:36 297 4 gusting 7 23.9
2017-May-24 15:36 231 2 gusting 7 22.2
2017-May-24 14:36 299 6 gusting 8 21.1
2017-May-24 13:36 299 6 gusting 10 21.1
2017-May-24 12:36 295 8 gusting 9 21.1
2017-May-24 11:36 288 6 gusting 7 21.1
2017-May-24 10:36 294 6 gusting 6 21.1
2017-May-24 09:36 302 6 gusting 7 20.6
2017-May-24 08:36 304 7 gusting 9 21.1
2017-May-24 07:36 302 6 gusting 10 21.7
2017-May-24 06:36 307 8 gusting 11 21.1
2017-May-24 05:36 308 8 gusting 10 21.1
2017-May-24 04:36 301 7 gusting 9 21.7
2017-May-24 03:36 290 6 gusting 10 22.2
2017-May-24 02:36 313 6 gusting 11 24.4
2017-May-24 01:36 313 7 gusting 10 25.6
2017-May-24 00:36 322 5 gusting 10 27.2
2017-May-23 23:36 320 6 gusting 9 27.8
2017-May-23 22:36 321 6 gusting 9 27.2
2017-May-23 21:36 319 5 gusting 7 27.8
2017-May-23 20:36 055 2 gusting 5 30.0
2017-May-23 19:36 328 2 gusting 6 29.4
2017-May-23 18:36 100 2 gusting 6 30.0